Weather History for Ogallala, NE

Change the Weather History Date:

Sunday, March 17, 2013

  Actual Average Record
Temperature  
Mean Temperature 42 °F -  
Max Temperature 54 °F 51 °F 83 °F (2012)
Min Temperature 30 °F 25 °F 7 °F (1965)
Degree Days  
Heating Degree Days 24    
Moisture  
Dew Point 30 °F    
Average Humidity 73    
Maximum Humidity 95    
Minimum Humidity 33    
Precipitation  
Precipitation 0.01 in - - ()
Sea Level Pressure  
Sea Level Pressure 29.73 in    
Wind  
Wind Speed 13 mph (SSE)    
Max Wind Speed 29 mph    
Max Gust Speed 43 mph    
Visibility 9 miles    
Events Rain , Thunderstorm    
Averages and records for this station are not official NWS values.
T = Trace of Precipitation, MM = Missing Value Source: NWS Daily Summary

Daily Weather History Graph

Daily Weather History Graph

Search for Another Location

Airport:

Trip Planner

Search our weather history database for the weather conditions in past years. The results will help you decide how hot, cold, wet, or windy it might be!

Date:

Astronomy

Mar. 17, 2013 Rise Set
Actual Time 6:54 AM MDT 6:56 PM MDT
Civil Twilight 6:27 AM MDT 7:23 PM MDT
Nautical Twilight 5:55 AM MDT 7:55 PM MDT
Astronomical Twilight 5:22 AM MDT 8:28 PM MDT
Moon 10:06 AM MDT 12:08 AM MDT
Length of Visible Light 12h 56m
Length of Day
12h 01m
Waxing Crescent, 32% of the Moon is Illuminated
Mar 17
Waxing Crescent
Mar 19
First Quarter
Mar 27
Full
Apr 2
Last Quarter
Apr 10
New

Hourly Weather History & Observations

Time (MDT) Temp. Windchill Dew Point Humidity Pressure Visibility Wind Dir Wind Speed Gust Speed Precip Events Conditions
12:15 AM 33.4 °F 25.4 °F 28.4 °F 82% 29.95 in 10.0 mi SE 10.4 mph - N/A   Overcast
12:35 AM 32.9 °F 24.7 °F 28.4 °F 84% 29.94 in 10.0 mi SE 10.4 mph - N/A   Overcast
12:55 AM 32.4 °F 23.0 °F 28.0 °F 84% 29.93 in 10.0 mi SE 12.7 mph - N/A   Overcast
1:15 AM 32.0 °F 22.5 °F 28.4 °F 87% 29.92 in 10.0 mi SE 12.7 mph - N/A   Overcast
1:35 AM 32.0 °F 23.6 °F 28.8 °F 88% 29.91 in 7.0 mi SE 10.4 mph - N/A   Overcast
1:55 AM 31.5 °F 21.8 °F 28.9 °F 90% 29.91 in 4.0 mi SE 12.7 mph - N/A   Overcast
2:15 AM 31.1 °F 22.4 °F 29.1 °F 92% 29.91 in 2.5 mi SE 10.4 mph - N/A   Overcast
2:35 AM 30.9 °F 24.3 °F 29.3 °F 94% 29.90 in 2.5 mi SE 6.9 mph - N/A   Overcast
2:55 AM 30.9 °F 22.8 °F 29.3 °F 94% 29.90 in 2.5 mi SSE 9.2 mph - N/A   Overcast
3:15 AM 30.7 °F 20.9 °F 29.3 °F 94% 29.89 in 2.5 mi SSE 12.7 mph - N/A   Overcast
3:35 AM 30.7 °F 22.6 °F 29.3 °F 94% 29.89 in 2.0 mi SSE 9.2 mph - N/A   Overcast
3:55 AM 30.7 °F 22.0 °F 29.3 °F 94% 29.88 in 1.8 mi SSE 10.4 mph - N/A   Overcast
4:15 AM 30.7 °F 21.4 °F 29.3 °F 94% 29.87 in 3.0 mi SSE 11.5 mph - N/A   Overcast
4:35 AM 31.1 °F 22.4 °F 29.8 °F 95% 29.86 in 5.0 mi SSE 10.4 mph - N/A   Overcast
4:55 AM 31.1 °F 23.1 °F 29.7 °F 94% 29.86 in 4.0 mi SSE 9.2 mph - N/A   Overcast
5:15 AM 31.1 °F 23.7 °F 29.7 °F 94% 29.85 in 4.0 mi SE 8.1 mph - N/A   Overcast
5:35 AM 31.1 °F 23.7 °F 29.7 °F 94% 29.85 in 5.0 mi SSE 8.1 mph - N/A   Overcast
5:55 AM 31.1 °F 23.1 °F 29.7 °F 94% 29.84 in 7.0 mi SSE 9.2 mph - N/A   Overcast
6:15 AM 32.0 °F 22.1 °F 30.2 °F 93% 29.83 in 10.0 mi SSE 13.8 mph - N/A   Overcast
6:35 AM 32.0 °F 23.0 °F 29.5 °F 90% 29.82 in 10.0 mi SSE 11.5 mph 19.6 mph N/A   Overcast
6:55 AM 32.0 °F 22.1 °F 29.5 °F 90% 29.82 in 10.0 mi South 13.8 mph 21.9 mph N/A   Overcast
7:15 AM 32.0 °F 22.1 °F 29.8 °F 92% 29.80 in 10.0 mi SSE 13.8 mph 17.3 mph N/A   Overcast
7:35 AM 32.0 °F 23.0 °F 30.0 °F 92% 29.80 in 10.0 mi South 11.5 mph 19.6 mph N/A   Overcast
7:55 AM 32.0 °F 21.6 °F 29.8 °F 92% 29.79 in 10.0 mi South 15.0 mph 23.0 mph N/A   Overcast
8:15 AM 32.4 °F 22.5 °F 29.8 °F 90% 29.79 in 10.0 mi SSE 13.8 mph 19.6 mph N/A   Overcast
8:35 AM 32.5 °F 22.7 °F 30.2 °F 91% 29.79 in 10.0 mi South 13.8 mph 18.4 mph N/A   Overcast
8:55 AM 32.9 °F 22.0 °F 30.4 °F 90% 29.78 in 10.0 mi South 17.3 mph 24.2 mph N/A   Overcast
9:15 AM 32.9 °F 22.0 °F 30.7 °F 92% 29.77 in 10.0 mi South 17.3 mph 24.2 mph N/A   Overcast
9:35 AM 33.3 °F 22.8 °F 31.1 °F 92% 29.77 in 10.0 mi SSE 16.1 mph - N/A   Overcast
9:55 AM 34.2 °F 24.0 °F 31.6 °F 90% 29.76 in 10.0 mi South 16.1 mph 24.2 mph N/A   Overcast
10:15 AM 34.9 °F 24.6 °F 31.1 °F 86% 29.75 in 10.0 mi South 17.3 mph 23.0 mph N/A   Overcast
10:35 AM 35.8 °F 25.4 °F 31.3 °F 84% 29.74 in 10.0 mi SSE 18.4 mph 24.2 mph N/A   Overcast
10:55 AM 37.0 °F 27.7 °F 31.1 °F 79% 29.73 in 10.0 mi South 16.1 mph 27.6 mph N/A   Overcast
11:15 AM 39.0 °F 29.3 °F 31.5 °F 74% 29.72 in 10.0 mi South 19.6 mph 24.2 mph N/A   Overcast
11:35 AM 41.2 °F 32.7 °F 32.0 °F 70% 29.70 in 10.0 mi South 17.3 mph 26.5 mph N/A   Overcast
11:55 AM 42.1 °F 33.3 °F 32.2 °F 68% 29.68 in 10.0 mi South 19.6 mph 25.3 mph N/A   Mostly Cloudy
12:15 PM 43.7 °F 36.3 °F 32.2 °F 64% 29.66 in 10.0 mi SSE 16.1 mph 26.5 mph N/A   Scattered Clouds
12:35 PM 45.9 °F 38.5 °F 33.6 °F 62% 29.64 in 10.0 mi SSE 18.4 mph 25.3 mph N/A   Scattered Clouds
12:55 PM 46.8 °F - 33.8 °F 61% 29.64 in 10.0 mi South 19.6 mph 25.3 mph N/A   Scattered Clouds
1:15 PM 48.7 °F - 29.1 °F 47% 29.63 in 10.0 mi South 16.1 mph 25.3 mph N/A   Overcast
1:35 PM 50.0 °F - 26.8 °F 41% 29.62 in 10.0 mi South 23.0 mph 27.6 mph N/A   Mostly Cloudy
1:55 PM 50.0 °F - 26.4 °F 40% 29.61 in 10.0 mi South 20.7 mph 26.5 mph N/A   Overcast
2:15 PM 51.1 °F - 26.2 °F 38% 29.59 in 10.0 mi South 19.6 mph 24.2 mph N/A   Overcast
2:35 PM 51.8 °F - 26.8 °F 38% 29.57 in 10.0 mi South 15.0 mph 21.9 mph N/A   Mostly Cloudy
2:55 PM 53.6 °F - 27.0 °F 36% 29.56 in 10.0 mi SSE 15.0 mph 20.7 mph N/A   Scattered Clouds
3:15 PM 53.2 °F - 26.6 °F 36% 29.54 in 10.0 mi South 19.6 mph 25.3 mph N/A   Mostly Cloudy
3:35 PM 52.7 °F - 27.7 °F 38% 29.54 in 10.0 mi South 18.4 mph 21.9 mph N/A   Overcast
3:55 PM 52.7 °F - 27.9 °F 38% 29.54 in 10.0 mi SSE 19.6 mph 25.3 mph N/A   Overcast
4:15 PM 52.9 °F - 28.9 °F 40% 29.53 in 10.0 mi SSE 12.7 mph 20.7 mph N/A   Overcast
4:35 PM 52.9 °F - 29.5 °F 41% 29.56 in 10.0 mi SSW 20.7 mph 33.4 mph N/A Rain , Thunderstorm Light Thunderstorms and Rain
4:55 PM 48.4 °F - 36.1 °F 63% 29.55 in 7.0 mi South 9.2 mph 26.5 mph 0.01 in Rain Rain
5:15 PM 48.2 °F - 37.2 °F 66% 29.54 in 10.0 mi South 16.1 mph - N/A Rain Light Rain
5:35 PM 47.3 °F - 37.2 °F 68% 29.54 in 10.0 mi South 16.1 mph 21.9 mph N/A   Overcast
5:55 PM 46.2 °F - 38.5 °F 74% 29.57 in 10.0 mi Calm Calm - N/A   Overcast
6:15 PM 48.2 °F - 36.3 °F 63% 29.60 in 10.0 mi Calm Calm - N/A   Overcast
6:35 PM 47.3 °F - 37.4 °F 68% 29.59 in 10.0 mi East 9.2 mph - N/A   Overcast
6:55 PM 46.8 °F - 37.6 °F 70% 29.60 in 10.0 mi ESE 5.8 mph - N/A   Overcast
7:15 PM 45.5 °F 41.8 °F 37.8 °F 74% 29.61 in 10.0 mi SE 6.9 mph - N/A   Overcast
7:35 PM 45.9 °F 42.9 °F 36.3 °F 69% 29.62 in 10.0 mi South 5.8 mph - N/A   Overcast
7:55 PM 45.3 °F 41.1 °F 35.1 °F 67% 29.62 in 10.0 mi WSW 8.1 mph - N/A   Overcast
8:15 PM 47.5 °F - 19.8 °F 33% 29.62 in 10.0 mi WNW 16.1 mph 27.6 mph N/A   Overcast
8:35 PM 46.2 °F 37.1 °F 28.2 °F 50% 29.63 in 10.0 mi NNW 28.8 mph 42.6 mph N/A   Mostly Cloudy
8:55 PM 42.3 °F 33.8 °F 30.2 °F 62% 29.66 in 10.0 mi NNW 18.4 mph 24.2 mph N/A   Mostly Cloudy
9:15 PM 40.3 °F 29.1 °F 28.4 °F 63% 29.69 in 10.0 mi NW 28.8 mph 40.3 mph N/A   Scattered Clouds
9:35 PM 38.3 °F 26.8 °F 28.4 °F 68% 29.72 in 10.0 mi NNW 26.5 mph 33.4 mph N/A   Clear
9:55 PM 37.4 °F 26.1 °F 27.3 °F 67% 29.74 in 10.0 mi NNW 24.2 mph 39.1 mph N/A   Clear
10:15 PM 36.1 °F 25.0 °F 26.2 °F 67% 29.75 in 10.0 mi NW 21.9 mph 31.1 mph N/A   Clear
10:35 PM 35.6 °F 24.0 °F 24.8 °F 65% 29.76 in 10.0 mi NNW 23.0 mph 29.9 mph N/A   Clear
10:55 PM 35.2 °F 24.1 °F 24.6 °F 65% 29.77 in 10.0 mi NNW 20.7 mph 32.2 mph N/A   Clear
11:15 PM 35.1 °F 24.5 °F 24.3 °F 65% 29.79 in 10.0 mi NNW 18.4 mph 31.1 mph N/A   Clear
11:35 PM 33.8 °F 24.3 °F 24.4 °F 69% 29.81 in 10.0 mi NW 13.8 mph 17.3 mph N/A   Clear
11:55 PM 33.3 °F 26.4 °F 24.1 °F 69% 29.82 in 10.0 mi NW 8.1 mph - N/A   Clear